Tracking 18852 objects as of 23-Nov-2017
HD Live streaming from Space Station
objects crossing your sky now

FENGYUN 1C DEB

Track FENGYUN 1C DEB now!
10-day predictions


NORAD ID: 31763
Int'l Code: 1999-025CFN
Perigee: 676.0 km
Apogee: 1,536.9 km
Inclination: 98.5 °
Period: 107.2 minutes
Semi major axis: 7477 km
RCS: 0.0081 m2 (small)
Launch date: May 10, 1999
Source: People's Republic of China (PRC)
Launch site: Taiyaun Space Center, China (TSC)

Note: This is SATELLITE DEBRIS
aabbcc
Your satellite tracking list
Your tracking list is empty




NASA's NSSDC Master Catalog

Two Line Element Set (TLE):
1 31763U 99025CFN 17326.19242163 +.00000306 +00000-0 +21952-3 0  9993
2 31763 098.4966 110.2314 0575673 067.1513 051.3993 13.42672959514617
Source of the keplerian elements: AFSPC